Back to catalog

BREEZE-M DEB

LostHEO
NORAD 34263·DEBRIS·🇷🇺 Russia

Launched Feb 28, 2006 from Baikonur Cosmodrome

Loading…

Next Passes (next 24 hours)

TLE

StaleSource: Space-Track

Epoch: Jun 25, 2026, 05:05 UTC

1 34263U 06006CE  26176.21210397  .00004750  00000-0  29705-2 0  9998
2 34263  51.5572 111.6352 4298929 247.8082  61.9268  6.64474988253837

Track BREEZE-M DEB in real time with AllMySat

Download on the App Store